Погода в Полтавке

Погода в Полтавке : погода сейчас, прогноз погоды и архив. Всё, что Вы хотите узнать о погоде в Полтавке!

Хотите узнать прогноз погоды в Полтавке? Тогда Вам сюда: Погода в Полтавке

Поиск расширенной информации на нашем сайте:

Другие новости

Новости СМИ2

Главная страница сайта

Новости сайта

02.10.2013

Напоминаем, что на нашем новом сайте вы можете получить высокодетализированные прогнозы погоды по пунктам России, СНГ и мира (включающие важные для авиации метеовеличины, такие как направление и скорость ветра, видимость, явления погоды, количество и форма облачности, нижняя и верхняя граница облачности), а также ознакомиться с разнообразными материалами по авиационной метеорологии и подборкой полезных ссылок на эту тему.

Сайт Метеоцентр.Азия посвящён разработке технологий оптимизации авиаметеорологического обслуживания, включая проектирование и перспективное создание нескольких автоматизированных авиаметеорологических систем:
- система выпуска высокодетальных прогностических карт явлений погоды для нижнего воздушного пространства по России и ближнему зарубежью;
- система верификации прогнозов TAF (выпускаемых синоптиками официальных АМСГ РФ и ближнего зарубежья) и AUTOTAF (выпускаемых сайтом Метеоцентр.Азия) - выявление ошибок, онлайн-сопоставление с фактической погодой METAR, автоматическое внесение коррективов в прогнозы при резком отклонении фактической погоды от прогноза, подсчёт оправдываемости прогнозов по элементам и в целом;
- система обработки, анализа и отображения авиаметеорологической информации для применения провайдерами метеорологической информации.


Погода в Полтавке - сегодня

Время (UTC), дата Ветер
(°,м/с) 
Видим.   Явления Облачность Т
(°С)
Тd
(°С)
f(%) Тe
(°С)
Pmin
(гПа)
dP
(гПа)
Po
(мм)
O2
(г/м3)
Тmin Tmax R s Состояние
почвы
21 18.01.17 тихо ()   4000 м  дымка [диам. изморози 2 мм]  10/10 120 м 
[St]
-23.6 -26.4 78 -24  1035.7  -0.9  764  339           
00 19.01.17 110 (В) 10 км  {туман} [диам. изморози 3 мм]  4/0 верхняя 
[Ci sp]
-24 -26.7 78 -24  1034.6  -1.2  763  339           
03 19.01.17 150 (ЮВ) 20000 м  [диам. изморози 5 мм]  5/3 300 м верхняя 
[St|Ci fib]
-22.8 -25.4 79 -23  1033.2  -1.2  762  337  -24.8      25  равномерный
сухой снег
100% 
06 19.01.17 160 (Ю) 4000 м  дымка [диам. изморози 5 мм]  ясно 
-19.6 -21.8 83 -22  1032.6  -0.3  762  332           
09 19.01.17 130 (ЮВ) 20000 м  [диам. изморози 3 мм]  10/0 верхняя 
[Ci fib]
-16.7 -18.8 84 -17  1030.6  -1.8  760  328           
12 19.01.17 140 (ЮВ) 20000 м  [диам. изморози 5 мм]  10/0 средняя 
[Ac und]
-18.8 -21 83 -23  1029.2  -1.6  759  330           
15 19.01.17 150 (ЮВ) 10 км    ясно 
-19.3 -21.6 82 -25  1027.6  -1.5  758  330    -16.4       
18 19.01.17 170 (Ю) 10 км    ясно 
-20.6 -23 81 -23  1026.1  -1.7  757  331           
21 19.01.17 180 (Ю) 10 км    ясно 
-21.4 -23.7 82 -24  1024.8  -1.3  756  332           
00 20.01.17 160 (Ю) 4000 м  слаб. снег  10/10 330 м 
[Ns]
-18.4 -20.5 84 -21  1022.9  -1.7  755  328           
03 20.01.17 180 (Ю) 4000 м  слаб. снег  10/0 средняя 
[Ac As]
-17.7 -19.7 84 -18  1020.8  -2  753  326  -23.5    0.2  25  равномерный
сухой снег
100% 
06 20.01.17 190 (Ю) 20000 м  {снег}  10/0 верхняя 
[Ci sp]
-14.9 -16.7 86 -17  1019.5  -1  752  322           
09 20.01.17 240 (ЮЗ) 20000 м    4/0 верхняя 
[Ci fib]
-14.5 -16.3 86 -17  1018  -1.6  751  321           
12 20.01.17 190 (Ю) 20000 м    3/0 верхняя 
[Ci sp]
-17.6 -19.7 84 -22  1017.2  -0.9  750  325           
15 20.01.17 190 (Ю) 10 км    ясно 
-19.9 -22.3 81 -23  1015.7  -1.7  749  327    -13.9  0.2     
18 20.01.17 190 (Ю) 10 км    ясно 
-18.9 -21 83 -24  1013.7  -1.9  748  325           
21 20.01.17 200 (Ю) 10 км    ясно 
-20.1 -22.5 81 -26  1012.4  -1.3  747  326           
00 21.01.17 190 (Ю) 10 км    ясно 
-19.7 -22 82 -26  1010.5  -1.8  745  325           
03 21.01.17 180 (Ю) 20000 м  позёмок  8/0 верхняя 
[Ci sp]
-18.3 -20.6 82 -24  1007.9  -2.5  743  323  -20.9      25  равномерный
сухой снег
100% 
06 21.01.17 220 (ЮЗ) 9-14{16}  4000 м  слаб. снег  10/0 средняя 
[As trans]
-11.6 -13.9 83 -19  1006  -1.4  742  314           
09 21.01.17 230 (ЮЗ) 7-11{15}  20000 м  позёмок{снег}  10/0 средняя 
[As op]
-12.1 -15.3 77 -18  1005.5  -0.5  742  314           
12 21.01.17 220 (ЮЗ) 4{12}  20000 м  {снег}  4/0 верхняя 
[Ci sp]
-13.7 -16.9 77 -18  1006.8  1.1  743  317           
15 21.01.17 220 (ЮЗ) 10 км    ясно 
-15 -17.9 78 -20  1007.7  0.9  744  318    -11.4  0.5     
18 21.01.17 220 (ЮЗ) 5{10}  10 км  позёмок  ясно 
-14.4 -17.4 78 -20  1008.2  0.4  744  318           
21 21.01.17 220 (ЮЗ) 6-10{11}  10 км  позёмок  10/0 средняя 
[Ac As]
-12.4 -15.1 80 -18  1008.5  0.5  744  315           
Время (UTC), дата Ветер
(°,м/с) 
Видим.   Явления Облачность Т
(°С)
Тd
(°С)
f(%) Тe
(°С)
Pmin
(гПа)
dP
(гПа)
Po
(мм)
O2
(г/м3)
Тmin Tmax R s Состояние
почвы

Для получения пояснительной информации подведите курсор к названию столбца.

ПОГОДА в Полтавке - архив

Всё, что Вы хотите узнать о погоде в Полтавке - удобно и подробно!

Выберите нужную дату (начиная с 1 января 2015* года) и нажмите кнопку "Найти".
Будут отображены архивные сводки погоды по пункту Полтавка, начиная с указанной даты.


Отображать данные в формате CSV (для использования в таблицах Excel)


Внимание! Наш архив погоды предназначен исключительно для личного некоммерческого использования в познавательных целях. Если Вам необходимы официальные справки о состоянии погоды (для производственных, юридических, коммерческих и т.п. целей), обращайтесь в органы Росгидромета.

*Примечание: данная дата относится к архиву по метеостанциям СССР (Россия, СНГ, Балтия).
Архив по метеостанциям Зарубежной Европы и Азии (кроме Китая) хранится 10 дней, по другим регионам земного шара (Китай, Африка, Америка, Австралия, Океания) - 1 день.

Полтавка - район местоположения метеостанции


Название, широта, долгота, высота метеостанции:
Полтавка 54.4°ш. 71.8°д. 125 м над ур. моря [Российская Федерация]

Дополнительная информация

В oтличие oт бoльшинства пoгoдных сайтoв мы публикуем пoдрoбную метеoинфoрмацию в детальнoм прoфессиoнальнoм фoрмате.

Характеристики температуры и влажнoсти вoздуха измеряются на высoте 2 м в тени вдали oт зданий и деревьев.
Скoрoсть ветра измеряется на высoте 10 м (на урoвне рoста челoвека скoрoсть ветра ниже в 1.5-2 раза). Если метеoстанция нахoдится в гoрoде или в лесу, тo скoрoсть ветра занижена на 2-4 м/с пo сравнению с oткрытым местoм. Скoрoсть ветра над акватoриями крупных рек и oзёр, а также на вершинах хoлмoв на 2-5 м/с выше, чем в oбычных услoвиях.
Атмoсфернoе давление в разных тoчках местнoсти мoжет значительнo oтличаться oт давления на метеoстанции, в зависимoсти oт услoвий рельефа (при пoдъёме на 10 м давление пoнижается примернo на 1 мм рт.ст.).